Skip to main content Skip to accessibility
This website is not compatible with your web browser. You should install a newer browser. If you live in Jersey and need help upgrading call the States of Jersey web team on 440099.
Homegov.je

Information and public services for the Island of Jersey

L'înformâtion et les sèrvices publyis pouor I'Île dé Jèrri

  • Choose the service you want to log in to:

  • gov.je

    Update your notification preferences

  • one.gov.je

    Access government services

  • CAESAR

    Clear goods through customs or claim relief

  • Talentlink

    View or update your States of Jersey job application

Local METARs

METAR EGJJ 240950Z 27008KT 240V320 9999 FEW007 SCT008 BKN010 17/17 Q1019

METAR EGJB 240950Z 27009KT 9999 BKN014 15/13 Q1019

METAR EGJA 240950Z 26009KT 9999 SCT017 16/12 Q1019

METAR LFRD 240930Z AUTO 20005KT 170V230 9000 BKN008 OVC017 16/14 Q1020 BECMG BKN020

METAR LFRC 240930Z AUTO 29005KT 270V330 9999 BKN016 OVC021 16/13 Q1019 TEMPO BKN012

 

 

 

​Apologies to the disruption to normal service. Commercial Aviation Services are available from the Jersey Met Forecaster 01534 448765.

Times are in Greenwich Mean Time (GMT) and not British Summer Time (BST). They will be one hour different during BST.

Back to top
rating button